COSMOS 886 DEB

Satellite information

Favourite Embed

Satellite Type and Status

DEBRISIN ORBIT

Key statistics

Satellite COSMOS 886 DEB at a glance.

Uptime

17787

Days in orbit

Revolutions

≈ 12.6

Per day

Orbit

MEO

Medium Earth Orbit

Inclination

65.9

Latest

Satellite identification and parameters

Extended collection of information and parameters for COSMOS 886 DEB.

Object identification

Identified? True

Debris? True

Object name: COSMOS 886 DEB

International designator: 1976-126AY

Object number (NORAD): 9958

Object ID (CCSDS): 9958

Country: COMMONWEALTH OF INDEPENDENT STATES (CIS)

Current information (Y/N): Y

RCS size: SMALL

Orbital parameters

Period: 114.14 minutes

Inclination: 65.8749 deg

SMA: 7794.434 km

Apoapsis: 2112.111 km

Periapsis: 720.486 km

RAAN: 26.1072 deg

Eccentricy: 0.08927041

Argument of periapsis: 345.4675 deg

Mean anomaly: 12.2104 deg

Mean motion: 12.61612334 rev/day

Mean motion (dot): 0.00000168 rev/day2

B* drag term: 0.00026746594 1/REarth

Two-line elements (TLE)

Creation date: Sept. 8, 2025, 3:16 a.m.

Reference frame: TEME

Reference center: EARTH

Epoch: Sept. 7, 2025, 12:47 p.m. UTC

TLE line 0: 0 COSMOS 886 DEB

TLE line 1: 1 09958U 76126AY 25250.53288000 .00000168 00000-0 26747-3 0 9997

TLE line 2: 2 09958 65.8749 26.1072 0892704 345.4675 12.2104 12.61612334227767

Live tracking on map

Real-time ground track for satellite COSMOS 886 DEB.

In-orbit conjunctions

A list of the most updated potential collisions computed for object COSMOS 886 DEB.

Target Orbit TCA Probability of collision Miss distance Type
CZ-6A DEB SSO 2024-11-15 23:39:33 0.0001317198 354.0 (m) DEBRIS
COSMOS 878 LEO 2024-05-31 00:47:10 0.0001364652 750.0 (m) PAYLOAD

Associated space launch

Second generation ASAT satellite

COSMOS 886 DEB was lifted into orbit during the mission ‘Tsiklon-2 | IS-A 4’, on board a Tsiklon-2 space rocket.

The launch took place on Dec. 27, 1976, 12:05 p.m. from 90.

For more information about the launch, click the button.

Launch to space Tsiklon-2 | IS-A 4
Tsiklon-2 | IS-A 4

Agency: N/A

Status: Launch Successful

Launch date: Dec. 27, 1976, 12:05 p.m. UTC

Rocket: Tsiklon-2

Launch pad: 90

Location: Baikonur Cosmodrome, Republic of Kazakhstan

...

Latest news about this satellite

There are no fresh news available about this satellite. Check back as we update our databases every day.


Newsletter sign-up

Weekly statistics, charts and insights to help you stay on top of the space industry.